sat.trackr.live / text

‹ back to catalog

STARLINK-36335

NORAD 68015 · 2026-040A

PAYLOAD ACTIVE UNKNOWN

§ Identity

Operator
Country
US
Launch date
2026-03-01
Launch site
AFWTR
Launch vehicle
Mass (kg)
RCS (m²)

Purposes: comms

External: N2YO · Heavens-Above · Gunter

§ Orbital elements

Epoch: 2026-09-20T02:45:59.848128Z

Period
93.91 min
Inclination
97.2862°
Eccentricity
0.0002628
Mean motion
15.33444227 rev/d
Perigee alt
463.7 km
Apogee alt
467.3 km
Semi-major
6,843.7 km
B*
5.5783e-4
RAAN
210.3817°
Arg perigee
89.2805°
Mean anomaly
270.8739°
Rev number
3,125

§ Raw data

STARLINK-363351 68015U 26040A   26263.11527602  .00017978  00000+0  55783-3 0  99972 68015  97.2862 210.3817 0002628  89.2805 270.8739 15.33444227 31250

JSON: /api/v1/satellites/68015 · /tle

For live sub-satellite position, see the globe view (requires WebGL).

§ Visibility from observer

Set your observer location to see the next 7 days of passes ≥ 10°. The values pass through the URL so the page stays shareable.

No JS? Fill the form by hand. The geolocation button needs JavaScript.